DW8397 Weather Reports


time (UTC)temp
F
wind
direction
speed
knots
gust
knots
rain 1hr
in
rain 24hr
in
rain mn
in
humidity
%
barometer
mb
20260509194551 44 140 0.0 0.0 0.03 0.28 0.28 93 1010.9
20260509193044 44 141 0.0 0.0 0.03 0.28 0.28 93 1011.1
20260509191542 44 109 0.0 0.0 0.03 0.27 0.27 93 1011.3
20260509190040 44 143 0.0 3.5 0.04 0.26 0.26 93 1011.4
20260509184541 44 148 0.9 5.2 0.06 0.26 0.26 93 1011.5
20260509183057 44 154 0.9 8.7 0.06 0.25 0.25 93 1011.4
20260509181538 44 137 1.7 7.0 0.07 0.24 0.24 93 1011.4
20260509180037 43 146 0.0 6.1 0.06 0.22 0.22 93 1011.4
20260509174546 44 136 1.7 6.1 0.05 0.20 0.20 93 1011.7
20260509173036 44 175 1.7 8.7 0.06 0.19 0.19 93 1011.8
20260509171540 44 163 0.0 4.3 0.06 0.17 0.17 93 1012.0
20260509170033 44 200 0.0 0.0 0.06 0.16 0.16 93 1012.1
20260509164530 44 200 0.0 0.0 0.07 0.15 0.15 93 1012.2
20260509163042 44 200 0.0 3.5 0.06 0.13 0.13 93 1012.5
20260509161539 43 186 0.0 6.1 0.05 0.11 0.11 92 1012.6
20260509160027 44 178 0.9 3.5 0.06 0.10 0.10 92 1012.9
20260509154526 44 98 0.0 3.5 0.05 0.08 0.08 92 1013.1
20260509153042 43 140 0.0 2.6 0.05 0.07 0.07 92 1013.2
20260509151525 43 162 0.0 0.0 0.05 0.06 0.06 91 1013.3
20260509150036 43 177 0.0 0.0 0.04 0.04 0.04 91 1013.3
20260509144523 43 204 0.0 0.0 0.03 0.03 0.03 90 1013.2
20260509143024 43 157 0.0 6.1 0.02 0.02 0.02 88 1013.1
20260509141523 44 187 0.0 3.5 0.01 0.01 0.01 87 1013.2
20260509140022 44 163 0.0 4.3 0.00 0.00 0.00 85 1013.0
20260509134518 43 184 0.0 0.0 0.00 0.00 0.00 82 1013.0
20260509133018 43 195 0.0 0.0 0.00 0.00 0.00 79 1013.1
20260509131522 43 195 0.0 0.0 0.00 0.00 0.00 81 1013.1
20260509130012 42 195 0.0 0.0 0.00 0.00 0.00 85 1013.0
20260509124510 40 195 0.0 0.0 0.00 0.00 0.00 89 1013.1
20260509123006 39 195 0.0 0.0 0.00 0.00 0.00 93 1013.1
20260509121502 37 195 0.0 0.0 0.00 0.00 0.00 94 1013.3
20260509114559 35 195 0.0 0.0 0.00 0.00 0.00 94 1013.5
20260509113058 34 195 0.0 0.0 0.00 0.00 0.00 94 1013.3
20260509111553 33 36 0.0 0.0 0.00 0.00 0.00 93 1013.4
20260509110050 33 302 0.0 0.0 0.00 0.00 0.00 93 1013.7
20260509104548 32 302 0.0 0.0 0.00 0.00 0.00 93 1013.5
20260509103050 32 302 0.0 0.0 0.00 0.00 0.00 93 1013.3
20260509101543 31 218 0.0 0.0 0.00 0.00 0.00 93 1013.5
20260509100049 31 218 0.0 0.0 0.00 0.00 0.00 93 1013.6
20260509094538 31 217 0.0 0.0 0.00 0.00 0.00 93 1013.5
20260509093042 30 218 0.0 0.0 0.00 0.00 0.00 93 1013.3
20260509091538 30 218 0.0 0.0 0.00 0.00 0.00 93 1013.2
20260509090042 30 217 0.0 0.0 0.00 0.00 0.00 92 1013.2
20260509084535 30 218 0.0 0.0 0.00 0.00 0.00 92 1013.2
20260509083035 30 218 0.0 0.0 0.00 0.00 0.00 92 1012.9
20260509081533 30 218 0.0 0.0 0.00 0.00 0.00 92 1012.9
20260509080031 30 218 0.0 0.0 0.00 0.00 0.00 91 1012.9
20260509074531 30 218 0.0 0.0 0.00 0.00 0.00 91 1012.7
20260509073029 30 218 0.0 0.0 0.00 0.00 0.00 91 1012.8
20260509071527 31 218 0.0 0.0 0.00 0.00 0.00 90 1012.7
20260509070027 31 218 0.0 0.0 0.00 0.00 0.00 90 1012.7
20260509064529 31 218 0.0 0.0 0.00 0.00 0.00 90 1012.9
20260509063027 32 218 0.0 0.0 0.00 0.00 0.00 90 1013.2
20260509061527 32 218 0.0 0.0 0.00 0.00 0.00 89 1013.3
20260509060030 32 218 0.0 0.0 0.00 0.00 0.00 88 1013.4
20260509054518 33 217 0.0 0.0 0.00 0.00 0.00 88 1013.5
20260509053016 33 218 0.0 0.0 0.00 0.00 0.00 87 1013.4
20260509051513 34 217 0.0 0.0 0.00 0.00 0.00 87 1013.3
20260509050033 34 217 0.0 0.0 0.00 0.00 0.00 87 1013.1
20260509044510 34 217 0.0 0.0 0.00 0.00 0.00 86 1013.0
20260509043009 35 217 0.0 0.0 0.00 0.00 0.00 85 1013.0
20260509041505 35 217 0.0 0.0 0.00 0.00 0.00 85 1012.8
20260509040003 36 217 0.0 0.0 0.00 0.00 0.00 84 1012.6
20260509034602 36 217 0.0 0.0 0.00 0.00 0.00 84 1012.7
20260509033004 36 217 0.0 0.0 0.00 0.00 0.00 83 1012.8
20260509031623 37 217 0.0 0.0 0.00 0.00 0.00 82 1012.7
20260509024557 38 217 0.0 0.0 0.00 0.00 0.00 80 1012.4
20260509023101 38 217 0.0 0.0 0.00 0.00 0.00 79 1012.2
20260509021555 39 217 0.0 0.0 0.00 0.00 0.00 77 1012.1
20260509020057 39 217 0.0 0.0 0.00 0.00 0.00 76 1012.0
20260509014555 40 217 0.0 0.0 0.00 0.00 0.00 76 1012.0
20260509013055 41 217 0.0 0.0 0.00 0.00 0.00 76 1011.7
20260509011550 41 217 0.0 0.0 0.00 0.00 0.00 73 1011.5
20260509010047 42 217 0.0 0.0 0.00 0.00 0.00 72 1011.2
20260509004550 43 217 0.0 0.0 0.00 0.00 0.00 70 1011.0
20260509003044 43 217 0.0 0.0 0.00 0.00 0.00 70 1010.8
20260509001543 44 217 0.0 0.0 0.00 0.00 0.00 67 1010.7
20260509000053 45 217 0.0 0.0 0.00 0.00 0.00 65 1010.5
20260508234540 45 218 0.0 0.0 0.00 0.00 0.00 65 1010.3
20260508233039 45 205 0.9 4.3 0.00 0.00 0.00 64 1010.3
20260508231539 46 249 0.0 8.7 0.00 0.00 0.00 64 1010.1
20260508230037 46 184 1.7 7.8 0.00 0.00 0.00 62 1010.1
20260508224535 46 234 0.9 9.6 0.00 0.00 0.00 62 1009.9
20260508223037 46 232 1.7 7.0 0.00 0.00 0.00 62 1010.0
20260508221537 46 184 0.0 9.6 0.00 0.00 0.00 63 1009.9
20260508220038 46 196 0.9 7.8 0.00 0.00 0.00 64 1009.8
20260508214534 46 269 5.2 13.0 0.00 0.00 0.00 64 1009.8
20260508213044 47 254 5.2 12.2 0.00 0.00 0.00 63 1009.5
20260508211534 47 229 1.7 7.8 0.00 0.00 0.00 65 1009.3
20260508210034 48 174 4.3 11.3 0.00 0.00 0.00 62 1009.3
20260508204532 48 208 7.0 16.5 0.00 0.00 0.00 57 1009.3
20260508203034 49 237 4.3 8.7 0.00 0.00 0.00 52 1009.1
20260508201529 49 265 3.5 11.3 0.00 0.00 0.00 50 1008.9
20260508200039 50 261 1.7 7.0 0.00 0.00 0.00 52 1008.9